This demonstration page uses our WeatherBlox Daily Observations layout. Learn more.

Left ArrowRight Arrow

40.92945, -100.16068

Hourly Observations for February 22, 2021

Temp ( °F °C ) Dew Point ( °F °C ) Humidity (%) Winds ( mph kmh ) Pressure ( in mb ) Visibility ( mi km ) Precip ( " mm )
12:15 am 00:15 Clear 26 -3.4 19 -7.3 75 75 W 10 17 30.12 1020 10 16.0934 N/A
12:35 am 00:35 Clear 26 -3.5 19 -7.5 74 74 W 7 11 30.12 1020 10 16.0934 N/A
12:55 am 00:55 Clear 24 -4.4 18 -7.9 77 77 W 9 15 30.13 1020 10 16.0934 N/A
1:15 am 01:15 Clear 25 -4.1 18 -7.8 76 76 W 9 15 30.12 1020 10 16.0934 N/A
1:35 am 01:35 Clear 26 -3.2 19 -7.1 75 75 W 10 17 30.1 1019 10 16.0934 N/A
1:55 am 01:55 Clear 27 -3 19 -7 74 74 WSW 8 13 30.1 1019 10 16.0934 N/A
2:15 am 02:15 Clear 27 -2.7 20 -6.7 74 74 WSW 8 13 30.09 1019 10 16.0934 N/A
2:35 am 02:35 Clear 27 -3 20 -6.6 76 76 W 7 11 30.1 1019 10 16.0934 N/A
2:55 am 02:55 Clear 27 -2.6 20 -6.5 75 75 W 9 15 30.08 1019 10 16.0934 N/A
3:15 am 03:15 Clear 28 -2.2 21 -6.1 75 75 W 10 17 30.08 1019 10 16.0934 N/A
3:35 am 03:35 Clear 30 -1.1 22 -5.6 72 72 W 10 17 30.06 1018 10 16.0934 N/A
3:55 am 03:55 Clear 31 -0.4 22 -5.3 70 70 W 14 22 30.05 1018 10 16.0934 N/A
4:15 am 04:15 Clear 32 -0.1 23 -5.2 69 69 W 15 24 30.04 1017 10 16.0934 N/A
4:35 am 04:35 Clear 32 -0.2 22 -5.3 69 69 W 13 20 30.03 1017 10 16.0934 N/A
4:55 am 04:55 Clear 31 -0.5 23 -5.2 71 71 W 12 19 30.03 1017 10 16.0934 N/A
5:15 am 05:15 Clear 31 -0.3 23 -5.2 70 70 W 10 17 30.03 1017 10 16.0934 N/A
5:35 am 05:35 Clear 32 -0.2 23 -5.2 69 69 W 13 20 30.03 1017 10 16.0934 N/A
5:55 am 05:55 Clear 32 -0.1 23 -5 70 70 W 10 17 30.03 1017 10 16.0934 N/A
6:15 am 06:15 Clear 31 -0.3 23 -5 71 71 W 12 19 30.03 1017 10 16.0934 N/A
6:35 am 06:35 Clear 32 -0.2 23 -5 70 70 W 14 22 30.02 1017 10 16.0934 N/A
6:55 am 06:55 Clear 31 -0.4 23 -5.2 70 70 W 12 19 30.02 1017 10 16.0934 N/A
7:15 am 07:15 Clear 32 undefined 23 -5.1 69 69 W 14 22 30.02 1016 10 16.0934 N/A
7:35 am 07:35 Sunny 36 2 24 -4.5 62 62 W 18 30 30 1016 10 16.0934 N/A
7:55 am 07:55 Sunny 37 2.8 24 -4.2 60 60 WNW 20 31 29.99 1016 10 16.0934 N/A
8:15 am 08:15 Sunny 34 1.3 24 -4.2 67 67 W 13 20 30 1016 10 16.0934 N/A
8:35 am 08:35 Sunny 38 3.2 25 -4 60 60 W 23 37 30 1016 10 16.0934 N/A
8:55 am 08:55 Sunny 38 3.6 26 -3.5 60 60 WNW 23 37 29.99 1016 10 16.0934 N/A
9:15 am 09:15 Sunny 39 3.8 26 -3.5 59 59 W 26 43 29.99 1016 10 16.0934 N/A
9:35 am 09:35 Sunny 38 3.4 27 -2.8 64 64 W 17 28 29.98 1015 10 16.0934 N/A
9:55 am 09:55 Sunny 39 4.1 27 -2.7 62 62 WNW 16 26 29.99 1015 10 16.0934 N/A
10:15 am 10:15 Sunny 40 4.7 27 -2.8 59 59 WNW 22 35 29.98 1015 10 16.0934 N/A
10:35 am 10:35 Sunny 40 4.7 28 -2.5 60 60 WNW 21 33 29.98 1015 10 16.0934 N/A
10:55 am 10:55 Sunny 41 5 28 -2.5 59 59 WNW 21 33 29.97 1015 10 16.0934 N/A
11:15 am 11:15 Sunny 40 4.7 28 -2.2 61 61 WNW 18 30 29.98 1015 10 16.0934 N/A
11:35 am 11:35 Sunny 41 4.9 28 -2 61 61 WNW 18 30 29.98 1015 10 16.0934 N/A
11:55 am 11:55 Sunny 41 5.1 28 -2 60 60 WNW 18 30 29.99 1015 10 16.0934 N/A
12:15 pm 12:15 Sunny 41 5.1 29 -1.6 62 62 WNW 14 22 29.98 1015 10 16.0934 N/A
12:35 pm 12:35 Sunny 42 5.5 29 -1.9 59 59 WNW 22 35 29.97 1015 10 16.0934 N/A
12:55 pm 12:55 Sunny 42 5.6 29 -1.7 60 60 WNW 21 33 29.96 1015 10 16.0934 N/A
1:15 pm 13:15 Sunny 42 5.7 29 -1.6 60 60 WNW 18 30 29.95 1014 10 16.0934 N/A
1:35 pm 13:35 Sunny 42 5.7 29 -1.5 60 60 WNW 20 31 29.95 1014 10 16.0934 N/A
1:55 pm 13:55 Sunny 44 6.5 29 -1.6 57 57 WNW 21 33 29.92 1013 10 16.0934 N/A
2:15 pm 14:15 Sunny 43 6.1 30 -1.2 60 60 WNW 16 26 29.93 1013 10 16.0934 N/A
2:30 pm 14:30 Sunny 43 5.9 30 -1.2 61 61 WNW 16 26 29.94 1014 10 16.0934 N/A
2:55 pm 14:55 Sunny 43 6.1 30 -1 61 61 WNW 14 22 29.94 1014 10 16.0934 N/A
3:15 pm 15:15 Sunny 45 7 30 -1.3 56 56 WNW 15 24 29.93 1014 10 16.0934 N/A
3:35 pm 15:35 Sunny 44 6.5 30 -1.1 59 59 WNW 15 24 29.93 1014 10 16.0934 N/A
3:55 pm 15:55 Sunny 43 6.1 30 -0.9 61 61 NW 12 19 29.95 1014 10 16.0934 N/A
4:15 pm 16:15 Sunny 44 6.6 30 -0.9 59 59 WNW 15 24 29.93 1014 10 16.0934 N/A
4:35 pm 16:35 Sunny 44 6.4 31 -0.8 60 60 WNW 15 24 29.93 1014 10 16.0934 N/A
4:55 pm 16:55 Sunny 44 6.6 30 -1 59 59 WNW 20 31 29.94 1014 10 16.0934 N/A
5:15 pm 17:15 Sunny 43 6.2 30 -0.9 61 61 WNW 17 28 29.94 1014 10 16.0934 N/A
5:35 pm 17:35 Sunny 43 6.1 30 -0.9 61 61 WNW 17 28 29.95 1014 10 16.0934 N/A
5:55 pm 17:55 Sunny 42 5.3 31 -0.6 66 66 WNW 14 22 29.97 1015 10 16.0934 N/A
6:15 pm 18:15 Sunny 40 4.3 31 -0.5 71 71 WNW 13 20 29.97 1015 10 16.0934 N/A
6:35 pm 18:35 Clear 39 3.7 31 -0.5 74 74 WNW 10 17 29.98 1015 10 16.0934 N/A
6:55 pm 18:55 Clear 38 3.5 31 -0.5 75 75 WNW 10 17 29.99 1016 10 16.0934 N/A
7:15 pm 19:15 Clear 37 2.9 31 -0.5 79 79 WNW 10 17 30 1016 10 16.0934 N/A
7:35 pm 19:35 Clear 36 2.2 31 -0.6 82 82 WNW 9 15 30.02 1016 10 16.0934 N/A
7:55 pm 19:55 Clear 36 2 31 -0.7 83 83 WNW 10 17 30.03 1017 10 16.0934 N/A
8:15 pm 20:15 Clear 36 2.1 31 -0.7 82 82 NW 10 17 30.03 1017 10 16.0934 N/A
8:35 pm 20:35 Clear 35 1.5 30 -1 84 84 WNW 9 15 30.03 1017 10 16.0934 N/A
8:55 pm 20:55 Clear 34 1.2 30 -1 85 85 W 9 15 30.03 1017 10 16.0934 N/A
9:15 pm 21:15 Clear 35 1.5 30 -1 84 84 WNW 8 13 30.05 1018 10 16.0934 N/A
9:35 pm 21:35 Clear 34 1.2 30 -1.1 85 85 WNW 9 15 30.06 1018 10 16.0934 N/A
9:55 pm 21:55 Clear 35 1.4 30 -1 84 84 WNW 10 17 30.06 1018 10 16.0934 N/A
10:15 pm 22:15 Clear 35 1.5 30 -1 84 84 WNW 9 15 30.06 1018 10 16.0934 N/A
10:35 pm 22:35 Clear 35 1.4 30 -1.2 83 83 WNW 8 13 30.06 1018 10 16.0934 N/A
10:55 pm 22:55 Clear 33 0.8 29 -1.5 85 85 WNW 7 11 30.07 1018 10 16.0934 N/A
11:15 pm 23:15 Clear 33 0.5 29 -1.6 86 86 W 9 15 30.08 1019 10 16.0934 N/A
11:35 pm 23:35 Clear 33 0.7 29 -1.5 85 85 WNW 12 19 30.07 1018 10 16.0934 N/A
11:55 pm 23:55 Clear 33 0.5 29 -1.6 86 86 WNW 10 17 30.07 1018 10 16.0934 N/A

Powered by AerisWeather